Startseite
Über Mich
AHP4
Galerie
Sehschlangen
Tourenbuch
Bookmarks
Elektronik
Bewertung
Geschichten
[Tagesmessung] [Jahreswerte] [Information]

Messwerte vom 22.03.2022

Die letzten Messwerte von 23:58:47 Uhr:
KategorieMesswert
Temperatur [°C]0
Luftdruck [mBar]1016
Sonneneinstrahlung0
Wind [km/h]1 aus Südost
Niederschlag [l/m²]0
rel.Luftfeucht.71%
CO2 [ppm]812

Diagramme
Messwerte vom 22.03.2022
Tagesaggregation
KategorieMinimumMaximumSchnittSumme
Temperatur [°C]-3216.8521
Luftdruck [mBar]101510181016.7083
Sonneneinstrahlung247108.4958
Wind [km/h]12
rF [%]18.578.953.12
Niederschlag [l/m²]0
CO2 [ppm]404922608.4
Einordnung alsFrosttag
Vegetationstag

Messungen an benachbarten Tagen: Zur Jahresaggregation 2022
Tabelle aller Messwerte
UhrzeitTemperatur [°C]Luftdruck [mBar]SonneWind [km/h]RichtungRegen [l/m²]rF [%]CO2 [ppm]
00:01:48 1 1017 0 0 NO 0 64.6 518
00:04:48 2 1017 0 0 NO 0 64.5 524
00:07:45 2 1017 0 0 NO 0 64.2 515
00:10:45 2 1017 0 0 NO 0 63.9 515
00:13:47 2 1017 0 0 NO 0 63.6 515
00:16:45 2 1017 0 0 NO 0 63.7 521
00:19:46 2 1017 0 0 O 0 63.6 524
00:22:46 2 1017 0 0 O 0 63.5 527
00:25:46 2 1017 0 0 O 0 63.1 525
00:28:47 2 1017 0 0 O 0 62.8 521
00:31:48 2 1017 0 0 O 0 63.7 518
00:34:48 2 1018 0 0 O 0 64 509
00:37:46 2 1017 0 0 O 0 63.7 509
00:40:46 2 1017 0 0 O 0 63.7 521
00:43:47 2 1017 0 0 O 0 63.6 518
00:46:45 2 1017 0 0 O 0 63.4 500
00:49:45 2 1017 0 0 O 0 63.5 489
00:52:48 1 1017 0 0 O 0 64.4 500
00:55:47 1 1017 0 0 O 0 65 509
00:58:43 1 1017 0 0 O 0 65.5 512
01:01:46 1 1017 0 0 N 0 65.7 498
01:04:47 1 1017 0 0 O 0 65.9 498
01:07:45 1 1017 0 0 O 0 65.9 507
01:10:46 2 1017 0 0 O 0 65.9 507
01:13:46 2 1017 0 0 O 0 66 504
01:16:48 2 1017 0 0 SO 0 66 501
01:19:48 2 1017 0 0 O 0 66.2 498
01:22:45 2 1017 0 0 O 0 65.8 495
01:25:47 2 1017 0 0 O 0 65.4 496
01:28:45 2 1017 0 0 O 0 65.2 492
01:31:45 2 1017 0 0 O 0 65.1 492
01:34:47 1 1017 0 0 O 0 65.6 493
01:37:45 1 1017 0 0 O 0 65.8 490
01:40:45 1 1017 0 0 O 0 66.1 491
01:43:45 1 1017 0 0 O 0 66.2 494
01:46:47 0 1017 0 0 O 0 66.5 489
01:49:44 0 1017 0 0 O 0 66.9 491
01:52:45 0 1017 0 0 O 0 67.6 473
01:55:46 0 1017 0 0 O 0 68.2 492
01:58:47 0 1017 0 0 O 0 68.7 496
02:01:48 0 1017 0 0 O 0 68.6 490
02:04:46 0 1017 0 0 O 0 68.6 489
02:07:47 0 1017 0 0 O 0 68.5 489
02:10:46 0 1017 0 0 O 0 68.8 492
02:13:46 0 1017 0 0 O 0 68.6 483
02:16:45 0 1017 0 0 O 0 68.5 486
02:19:48 0 1017 0 0 O 0 68.5 486
02:22:45 0 1017 0 0 O 0 68.7 483
02:25:46 0 1017 0 0 O 0 69 480
02:28:45 0 1017 0 0 O 0 69 476
02:31:45 0 1017 0 0 O 0 69 477
02:34:46 0 1017 0 0 O 0 69.2 481
02:37:46 0 1017 0 0 O 0 69.1 479
02:40:46 0 1017 0 0 O 0 69 478
02:43:45 0 1017 0 0 O 0 69 477
02:46:47 0 1017 0 0 O 0 69 478
02:49:46 0 1017 0 0 O 0 69.3 477
02:52:46 0 1017 0 0 O 0 69.2 474
02:55:46 0 1017 0 0 O 0 69 469
02:58:45 0 1017 0 0 O 0 69 466
03:01:46 0 1017 0 0 O 0 69.3 454
03:04:47 -1 1017 0 0 O 0 69.4 448
03:07:45 0 1017 0 0 O 0 69.7 451
03:10:45 0 1017 0 0 O 0 69.5 457
03:13:46 -1 1017 0 0 O 0 69.3 457
03:16:43 -1 1017 0 0 O 0 69.1 454
03:19:47 -1 1017 0 0 O 0 69.6 466
03:22:47 -1 1017 0 0 O 0 69.9 468
03:25:47 -1 1017 0 0 O 0 70.5 469
03:28:46 -1 1017 0 0 O 0 70.6 466
03:31:46 -1 1017 0 0 O 0 70.7 471
03:34:47 -1 1017 0 0 O 0 70.8 466
03:37:44 -1 1017 0 0 O 0 71 459
03:40:46 -1 1017 0 0 O 0 71.1 457
03:43:44 -1 1017 0 0 O 0 71.1 448
03:46:48 -1 1017 0 0 O 0 71.5 445
03:49:44 -1 1017 0 0 O 0 71.6 448
03:52:47 -2 1017 0 0 O 0 71.9 451
03:55:45 -2 1017 0 0 O 0 71.9 448
03:58:45 -2 1017 0 0 O 0 72.1 436
04:01:44 -2 1017 0 0 O 0 72.4 441
04:04:46 -2 1017 0 0 O 0 72.7 446
04:07:45 -2 1017 0 0 O 0 72.6 457
04:10:47 -2 1017 0 0 O 0 72.5 448
04:13:45 -2 1017 0 0 O 0 73 442
04:16:47 -2 1017 0 0 O 0 73.5 439
04:19:45 -2 1017 0 0 O 0 73.5 433
04:22:46 -2 1017 0 0 O 0 74 442
04:25:47 -2 1017 0 0 O 0 74 453
04:28:46 -2 1017 0 0 O 0 74.3 450
04:31:47 -2 1017 0 0 O 0 75 447
04:34:46 -2 1017 0 0 O 0 75.2 442
04:37:45 -2 1017 0 0 O 0 75 448
04:40:45 -2 1017 0 0 O 0 75 447
04:43:43 -2 1017 0 0 O 0 75.4 451
04:46:45 -3 1017 0 0 O 0 75.4 450
04:49:47 -3 1017 0 0 O 0 75.5 457
04:52:44 -2 1017 0 0 O 0 75.6 457
04:55:46 -2 1017 0 0 O 0 75.9 451
04:58:48 -2 1017 0 0 O 0 75.8 444
05:01:45 -2 1017 0 0 O 0 75.8 437
05:04:46 -2 1017 0 0 O 0 75.9 445
05:07:49 -3 1017 0 0 O 0 75.9 451
05:10:47 -3 1017 0 0 O 0 76 451
05:13:46 -2 1017 0 0 O 0 76.4 448
05:16:45 -3 1017 0 0 O 0 76.7 446
05:19:47 -2 1017 0 0 O 0 76.6 448
05:22:46 -3 1017 0 0 O 0 76.5 446
05:25:46 -3 1017 0 0 O 0 76.8 460
05:28:46 -2 1017 0 0 O 0 77.2 454
05:31:47 -2 1017 0 0 O 0 77.8 453
05:34:46 -2 1017 0 0 O 0 77.9 439
05:37:45 -2 1017 0 0 O 0 77.8 442
05:40:46 -2 1017 0 0 O 0 77.4 443
05:43:48 -2 1017 0 0 O 0 76.9 439
05:46:46 -2 1017 0 0 O 0 76.9 437
05:49:45 -2 1017 0 0 O 0 77.4 437
05:52:46 -2 1017 4 0 O 0 78 437
05:55:44 -2 1017 7 0 O 0 77.7 436
05:58:46 -2 1017 12 0 O 0 78.2 433
06:01:48 -2 1017 19 0 O 0 77.9 439
06:04:48 -2 1017 28 0 O 0 77.9 439
06:07:46 -2 1017 39 0 O 0 77.9 442
06:10:47 -2 1017 52 0 O 0 77.9 440
06:13:47 -2 1017 65 0 SO 0 77.7 442
06:16:47 -2 1017 78 0 SO 0 78.3 445
06:19:48 -2 1017 90 0 SO 0 78.9 450
06:22:49 -2 1017 102 0 SO 0 78.5 442
06:25:48 -3 1017 112 0 SO 0 78.3 448
06:28:49 -3 1017 122 0 SO 0 78.3 436
06:31:47 -3 1017 130 0 SO 0 78.1 430
06:34:49 -2 1017 137 0 NW 0 78.3 433
06:37:48 -2 1017 143 0 NW 0 78.3 445
06:40:48 -2 1017 148 0 NW 0 78.5 448
06:43:47 -2 1017 153 0 NW 0 78.4 445
06:46:47 -2 1017 157 0 NW 0 78.3 436
06:49:49 -2 1017 160 0 NW 0 78.4 440
06:52:48 -2 1017 164 0 NW 0 78.3 436
06:55:47 -2 1017 167 0 NW 0 78 445
06:58:47 -1 1017 170 0 N 0 78.7 451
07:01:47 -1 1017 172 0 N 0 78.7 451
07:04:46 -1 1017 175 0 N 0 77.9 451
07:07:46 -1 1017 177 0 N 0 77.5 442
07:10:48 -1 1017 179 0 O 0 77.3 436
07:13:46 -1 1017 179 0 O 0 76.7 433
07:16:50 -1 1017 181 0 O 0 76.6 434
07:19:46 -1 1017 182 0 O 0 76.7 445
07:22:46 -1 1017 183 0 O 0 76.7 456
07:25:47 -1 1017 185 0 O 0 76.5 469
07:28:50 -1 1017 186 0 O 0 76.5 472
07:31:46 0 1017 187 0 O 0 76.8 477
07:34:51 0 1017 187 0 O 0 76.6 472
07:37:47 0 1017 188 0 O 0 75.7 477
07:40:45 0 1017 189 0 O 0 75.7 477
07:43:46 0 1017 189 0 O 0 75.4 480
07:46:45 0 1017 190 0 O 0 75.4 474
07:49:45 0 1017 190 0 O 0 75.3 478
07:52:49 0 1017 191 0 O 0 75.5 486
07:55:45 1 1017 191 0 O 0 75.6 487
07:58:47 1 1017 191 0 N 0 75.7 488
08:01:47 1 1017 192 0 O 0 75.9 480
08:04:46 1 1017 192 0 N 0 76.2 480
08:07:49 2 1018 192 0 NO 0 76.3 475
08:10:48 2 1017 193 0 SO 0 75.7 471
08:13:51 2 1017 193 0 NO 0 74.5 471
08:16:47 2 1018 193 0 NO 0 74.1 482
08:19:50 2 1017 193 0 NO 0 73.5 492
08:22:51 2 1017 194 0 NO 0 72.8 498
08:25:47 2 1017 194 0 O 0 72.3 492
08:28:48 3 1017 194 0 NO 0 71.9 492
08:31:46 3 1017 194 0 S 0 71.3 501
08:34:47 3 1017 195 0 S 0 70.6 506
08:37:48 3 1018 195 1 SO 0 70.4 507
08:40:48 3 1017 195 0 SO 0 69.9 506
08:43:50 3 1017 196 0 SO 0 69.8 504
08:46:48 3 1017 196 0 SO 0 69.8 510
08:49:48 4 1017 196 0 SO 0 69.9 513
08:52:49 4 1017 196 0 NO 0 69.9 521
08:55:49 4 1018 196 2 SW 0 69.8 510
08:58:46 4 1018 197 1 NO 0 69.3 511
09:01:48 5 1018 197 0 NO 0 68.6 516
09:04:49 5 1017 197 0 NO 0 67.2 519
09:07:46 5 1017 197 2 O 0 66.4 521
09:10:48 5 1018 197 0 N 0 65.8 519
09:13:48 6 1017 198 0 O 0 65.2 524
09:16:47 6 1018 198 1 N 0 65.3 533
09:19:49 6 1017 198 0 NO 0 65.3 542
09:22:45 6 1017 198 0 O 0 65.2 541
09:25:47 6 1017 199 0 N 0 64.5 539
09:28:49 6 1017 199 0 N 0 63.5 536
09:31:50 7 1017 200 0 SO 0 62.9 540
09:34:48 7 1017 201 1 O 0 62.7 548
09:37:47 7 1018 202 0 S 0 62.6 551
09:40:46 7 1018 202 1 N 0 61.7 550
09:43:48 7 1017 203 3 NO 0 60.1 543
09:46:49 8 1018 204 0 SO 0 58.9 541
09:49:47 8 1017 204 0 S 0 58.6 542
09:52:49 8 1017 205 1 NO 0 58.5 545
09:55:48 8 1018 205 1 N 0 58.5 550
09:58:48 8 1017 205 2 N 0 56.7 550
10:01:48 9 1017 206 3 SO 0 56.1 554
10:04:48 9 1018 206 1 NO 0 54.2 556
10:07:48 9 1017 206 1 NO 0 53 565
10:10:46 9 1018 206 5 0 50.4 565
10:13:49 9 1018 206 2 N 0 49.7 569
10:16:51 9 1017 206 0 NO 0 49.7 566
10:19:48 9 1018 206 0 SO 0 49.3 568
10:22:46 10 1017 207 1 O 0 49.8 568
10:25:47 10 1017 207 0 O 0 50 564
10:28:48 10 1017 207 3 SO 0 48.6 575
10:31:47 10 1017 207 3 S 0 48.5 575
10:34:44 10 1017 207 1 0 48.7 585
10:37:49 10 1017 208 0 SW 0 47.6 574
10:40:49 11 1018 208 1 SO 0 48.6 570
10:43:49 11 1018 208 2 O 0 49 580
10:46:52 11 1018 208 2 SO 0 48.9 592
10:49:47 11 1018 208 1 S 0 47.6 592
10:52:46 11 1017 208 5 0 47.3 594
10:55:47 11 1017 209 3 S 0 45.3 600
10:58:46 11 1018 209 1 N 0 44.9 600
11:01:48 11 1018 209 1 O 0 44.6 592
11:04:47 12 1017 209 0 N 0 44.9 598
11:07:48 12 1017 209 1 NO 0 43.6 600
11:10:48 12 1018 210 3 SO 0 44 609
11:13:51 12 1017 210 0 NW 0 44.9 612
11:16:48 13 1017 210 1 NO 0 45 613
11:19:48 13 1018 210 0 S 0 44.4 619
11:22:49 13 1017 210 0 SO 0 41.9 618
11:25:47 13 1017 210 3 NO 0 41.5 616
11:28:47 13 1017 211 5 S 0 41.2 615
11:31:46 13 1017 211 1 SO 0 41.4 615
11:34:48 14 1017 212 1 NO 0 41.1 621
11:37:47 15 1017 212 4 S 0 40.1 624
11:40:47 16 1017 212 1 S 0 39.2 622
11:43:48 16 1017 212 0 NW 0 36.2 621
11:46:47 16 1017 213 5 SO 0 35.7 622
11:49:47 17 1017 213 1 N 0 36.4 628
11:52:47 18 1017 214 0 S 0 36.6 632
11:55:49 18 1017 214 6 SO 0 35.7 626
11:58:48 19 1017 214 3 S 0 29.9 896
12:01:47 19 1017 215 11 S 0 29.5 898
12:04:50 19 1017 215 3 SO 0 28.6 895
12:07:52 19 1017 216 2 NW 0 25.5 894
12:10:48 18 1017 216 4 S 0 24.9 911
12:13:52 17 1018 217 2 SW 0 26.7 922
12:16:49 18 1017 217 12 SO 0 31.2 917
12:19:49 19 1017 218 6 S 0 31.9 896
12:22:47 20 1017 185 4 O 0 28.8 664
12:25:49 20 1017 186 2 NO 0 27.5 479
12:28:49 20 1017 186 6 S 0 27 407
12:31:49 21 1017 187 4 SW 0 26.2 407
12:34:48 19 1017 185 1 NW 0 24.9 407
12:37:47 17 1017 185 1 NO 0 25.1 407
12:40:51 17 1017 185 2 S 0 26.7 408
12:43:48 17 1017 186 1 O 0 27.7 407
12:46:48 18 1017 188 3 S 0 30.3 404
12:49:46 19 1017 190 1 S 0 30.1 404
12:52:50 20 1017 192 6 SO 0 27.4 407
12:55:48 20 1017 226 8 S 0 24.8 407
12:58:48 21 1017 227 0 S 0 24.7 404
13:01:48 21 1017 228 4 S 0 23 431
13:04:48 19 1017 229 2 NW 0 21.2 442
13:07:49 18 1017 229 1 N 0 20.9 451
13:10:49 18 1017 229 4 N 0 21.5 460
13:13:50 18 1017 229 0 NW 0 23.9 463
13:16:49 18 1017 230 1 N 0 25 471
13:19:47 18 1017 230 5 SO 0 24.2 480
13:22:50 19 1017 230 0 N 0 23.2 474
13:25:48 18 1017 230 1 O 0 23.4 480
13:28:32 17 1017 230 7 SO 0 32 488
13:31:45 19 1017 231 1 O 0 26.9 504
13:34:50 18 1017 232 0 NO 0 25.3 510
13:37:48 19 1017 234 2 N 0 27.8 527
13:40:49 19 1017 235 4 O 0 28 531
13:43:31 17 1017 235 2 O 0 40 541
13:46:50 19 1017 237 2 NW 0 25.8 539
13:49:47 18 1017 242 3 N 0 25.5 541
13:52:46 18 1017 242 2 NO 0 24.9 550
13:55:48 18 1017 242 4 NO 0 25.3 557
13:58:48 18 1017 243 3 O 0 25.7 562
14:01:48 19 1017 243 5 O 0 26.4 568
14:04:46 19 1017 243 3 O 0 26.6 579
14:07:47 19 1017 244 4 SO 0 25.1 585
14:10:47 19 1017 244 3 N 0 25.3 583
14:13:48 19 1017 244 4 O 0 23.9 588
14:16:48 18 1016 244 3 S 0 23.7 603
14:19:47 18 1016 244 3 O 0 22.4 608
14:22:49 19 1017 245 1 SO 0 23.5 615
14:25:48 19 1016 245 5 N 0 24.5 620
14:28:48 20 1017 245 4 SO 0 23.7 627
14:31:50 21 1017 245 8 S 0 24.3 640
14:34:48 21 1017 245 1 NO 0 23.9 647
14:37:48 21 1017 245 0 NO 0 24 648
14:40:50 20 1016 245 3 SO 0 22.6 644
14:43:51 20 1016 246 3 NW 0 23.5 650
14:46:47 20 1015 245 3 S 0 23.6 659
14:49:47 20 1017 246 1 O 0 23.4 665
14:52:49 20 1016 246 1 NW 0 21.6 672
14:55:47 20 1017 246 8 SO 0 22.6 676
14:58:46 20 1016 246 9 S 0 23.5 673
15:01:49 21 1017 246 2 SO 0 22.6 666
15:04:49 21 1016 246 2 O 0 21.1 668
15:07:47 20 1017 246 5 NO 0 20.6 674
15:10:48 19 1016 246 3 SO 0 21.6 671
15:13:51 20 1016 246 4 S 0 24.9 662
15:16:51 20 1016 246 4 SO 0 22.5 660
15:19:51 20 1017 246 0 SO 0 22.2 661
15:22:49 20 1017 247 2 SO 0 21.8 667
15:25:46 20 1016 246 2 S 0 22.5 670
15:28:48 20 1016 231 1 N 0 21.4 668
15:31:48 19 1016 247 6 NW 0 20.3 667
15:34:50 19 1017 247 3 SO 0 21.9 671
15:37:47 19 1017 247 2 O 0 21.7 663
15:40:49 19 1017 247 7 SO 0 20.8 653
15:43:49 19 1016 247 3 SW 0 21.7 654
15:46:53 20 1016 247 2 SO 0 22.2 642
15:49:48 19 1016 247 2 NO 0 19.2 635
15:52:48 19 1017 246 4 N 0 18.5 647
15:55:48 18 1016 246 3 N 0 20 651
15:58:47 18 1016 246 0 NO 0 21 653
16:01:48 19 1016 246 3 S 0 22.1 648
16:04:49 19 1016 245 2 O 0 22.6 650
16:07:50 20 1016 245 5 SO 0 23.5 644
16:10:50 20 1016 243 2 O 0 22 638
16:13:50 19 1016 243 3 SW 0 20.9 630
16:16:48 19 1016 244 1 S 0 20 633
16:19:49 19 1016 245 2 O 0 21.9 634
16:22:48 19 1017 242 8 SO 0 22.4 645
16:25:49 19 1016 242 3 S 0 22.9 653
16:28:49 19 1016 243 2 S 0 22.7 659
16:31:50 19 1015 243 0 NO 0 22.3 668
16:34:49 19 1015 244 2 SO 0 21.7 669
16:37:49 18 1016 243 4 N 0 21 674
16:40:50 18 1016 242 2 NO 0 22.3 674
16:43:47 19 1016 241 5 S 0 23.6 677
16:46:51 18 1016 245 3 SO 0 22.7 683
16:49:51 18 1016 245 0 SO 0 22.9 684
16:52:50 18 1016 240 4 SO 0 23.4 682
16:55:47 18 1016 242 2 NO 0 24.3 685
16:58:50 18 1015 243 3 SO 0 23.9 689
17:01:50 17 1016 241 2 SO 0 23.4 697
17:04:48 17 1016 240 1 S 0 24 707
17:07:47 17 1016 238 3 NW 0 24.5 714
17:10:50 17 1015 238 1 NO 0 25.6 715
17:13:48 16 1016 236 3 NO 0 25.9 717
17:16:46 16 1016 231 1 N 0 25.7 682
17:19:50 16 1016 235 1 NO 0 26.2 671
17:22:48 16 1016 232 2 N 0 26.5 671
17:25:46 15 1016 219 3 S 0 26.2 690
17:28:48 15 1016 217 1 NO 0 26.8 705
17:31:48 15 1016 212 0 O 0 27.5 705
17:34:50 14 1016 213 0 O 0 28.2 709
17:37:49 14 1015 212 1 NO 0 28.5 705
17:40:47 14 1016 214 0 NO 0 28.7 708
17:43:46 14 1017 216 1 O 0 29.7 704
17:46:52 14 1016 201 0 O 0 29.7 708
17:49:50 13 1015 198 0 O 0 30.3 719
17:52:47 13 1016 196 0 N 0 31.1 726
17:55:46 13 1016 193 0 O 0 31.6 723
17:58:46 13 1016 190 1 O 0 31.5 730
18:01:48 13 1015 186 1 NO 0 31.1 724
18:04:49 13 1015 182 0 O 0 31.2 726
18:07:47 12 1016 177 1 O 0 31.7 728
18:10:48 12 1016 172 0 NO 0 32.1 730
18:13:49 12 1015 166 0 NO 0 32.3 729
18:16:49 11 1016 159 1 NO 0 33.1 737
18:19:50 11 1016 151 0 NO 0 33.9 738
18:22:48 11 1016 143 0 NO 0 34 747
18:25:49 10 1015 133 0 NO 0 34.7 743
18:28:48 10 1016 122 0 NO 0 35.1 745
18:31:49 10 1016 111 0 NO 0 35.9 739
18:34:48 10 1016 98 0 NO 0 36 747
18:37:49 9 1016 85 0 NO 0 36.4 746
18:40:52 9 1016 71 0 NO 0 37.4 754
18:43:50 9 1016 57 0 NO 0 38.1 735
18:46:47 9 1016 43 0 NO 0 38.3 745
18:49:47 9 1016 30 0 NO 0 39 762
18:52:46 9 1016 19 0 NO 0 39.4 760
18:55:46 9 1016 12 0 NO 0 39.6 766
18:58:47 8 1016 7 0 NO 0 40.4 763
19:01:47 8 1015 4 0 NO 0 40.7 766
19:04:46 8 1016 0 0 NO 0 41.7 772
19:07:48 8 1016 0 0 NO 0 42.2 774
19:10:45 8 1016 0 0 NO 0 42.2 776
19:13:46 8 1015 0 0 S 0 42.5 776
19:16:46 7 1016 0 0 SO 0 43.1 776
19:19:47 7 1017 0 0 SO 0 43.2 773
19:22:48 7 1016 0 0 SO 0 43.5 780
19:25:47 6 1017 0 0 SO 0 44.4 790
19:28:46 6 1016 0 0 SO 0 44.8 791
19:31:47 6 1016 0 0 SO 0 45 805
19:34:46 6 1016 0 0 SO 0 45.3 803
19:37:46 6 1015 0 0 SO 0 46.1 808
19:40:47 6 1016 0 0 SO 0 46.4 801
19:43:47 5 1017 0 0 SO 0 47.9 802
19:46:48 5 1015 0 0 SO 0 48 804
19:49:47 5 1016 0 0 SO 0 48.6 808
19:52:47 5 1016 0 0 SO 0 48.5 800
19:55:47 5 1016 0 0 SO 0 50.1 799
19:58:47 5 1016 0 0 SO 0 50.1 800
20:01:48 5 1016 0 0 SO 0 50.9 803
20:04:46 5 1016 0 0 SO 0 51.1 812
20:07:45 5 1016 0 0 N 0 51.1 811
20:10:46 5 1017 0 0 NW 0 52.5 811
20:13:44 5 1017 0 0 O 0 52.9 811
20:16:48 5 1016 0 0 O 0 52.7 808
20:19:47 5 1017 0 0 O 0 52.1 806
20:22:47 5 1017 0 0 O 0 52.3 813
20:25:45 5 1016 0 0 O 0 56 811
20:28:46 5 1017 0 0 O 0 56.4 809
20:31:46 4 1017 0 0 SO 0 55.9 811
20:34:47 4 1017 0 0 SO 0 55.8 814
20:37:47 4 1016 0 0 N 0 56.4 815
20:40:46 4 1016 0 0 N 0 56.5 821
20:43:46 4 1015 0 0 N 0 56.4 814
20:46:46 4 1016 0 0 N 0 56.6 805
20:49:47 4 1016 0 0 SW 0 56.3 815
20:52:47 4 1016 0 0 SO 0 56 830
20:55:46 4 1017 0 0 SO 0 56.1 823
20:58:47 4 1017 0 0 SO 0 56.7 834
21:01:48 4 1016 0 0 SO 0 56.9 826
21:04:47 4 1016 0 0 SO 0 56.9 816
21:07:47 3 1017 0 0 SO 0 56.6 826
21:10:48 3 1016 0 0 SO 0 56.6 828
21:13:49 3 1016 0 0 SO 0 56.6 828
21:16:46 3 1017 0 0 SO 0 56.6 826
21:19:46 3 1017 0 0 SO 0 56.7 834
21:22:47 3 1016 0 0 SO 0 57.3 838
21:25:46 3 1016 0 0 SO 0 58.2 840
21:28:46 3 1016 0 0 SO 0 58.7 835
21:31:49 3 1017 0 0 SO 0 59.2 830
21:34:47 3 1017 0 0 SO 0 59.1 836
21:37:47 3 1016 0 0 SO 0 58.6 836
21:40:47 2 1016 0 0 SO 0 58.7 837
21:43:46 2 1016 0 0 SO 0 58.7 841
21:46:46 2 1016 0 0 SO 0 58.9 840
21:49:46 2 1016 0 0 SO 0 59.2 846
21:52:47 2 1017 0 0 SO 0 59.5 840
21:55:47 2 1016 0 0 SO 0 60.2 837
21:58:47 2 1016 0 0 SO 0 60.6 841
22:01:48 2 1017 0 0 N 0 60.3 839
22:04:48 2 1017 0 0 N 0 61 845
22:07:46 2 1015 0 0 N 0 60.8 841
22:10:48 2 1017 0 0 NW 0 62.3 850
22:13:48 2 1017 0 0 N 0 63.6 858
22:16:47 2 1017 0 0 NW 0 63.7 856
22:19:47 2 1016 0 0 NW 0 63.2 862
22:22:48 2 1016 0 0 NW 0 62.9 863
22:25:48 2 1017 0 0 NW 0 62.4 847
22:28:47 1 1016 0 0 SO 0 62.5 851
22:31:49 1 1016 0 0 SO 0 62.9 850
22:34:48 1 1016 0 0 SO 0 64 858
22:37:47 1 1016 0 0 SO 0 63.9 855
22:40:50 1 1017 0 0 SO 0 64 862
22:43:48 1 1016 0 0 SO 0 64.6 861
22:46:46 1 1016 0 0 SO 0 64.8 855
22:49:48 1 1017 0 0 SO 0 65.6 855
22:52:49 1 1017 0 0 SO 0 65.3 853
22:55:46 1 1017 0 0 SO 0 65.5 863
22:58:47 1 1016 0 0 SO 0 66 862
23:01:48 1 1016 0 0 SO 0 66.2 860
23:04:47 1 1017 0 0 SO 0 66.2 856
23:07:48 1 1016 0 0 SO 0 66.3 863
23:10:48 1 1016 0 0 SO 0 66.1 856
23:13:47 1 1016 0 0 SO 0 66.3 853
23:16:48 1 1016 0 0 SO 0 68.7 843
23:19:45 1 1016 0 0 O 0 70.4 835
23:22:46 1 1016 0 0 O 0 69.3 823
23:25:47 1 1016 0 0 SO 0 68.5 815
23:28:45 0 1016 0 0 N 0 68.6 826
23:31:46 0 1016 0 0 N 0 69.8 832
23:34:47 0 1016 0 0 NW 0 69.4 829
23:37:45 0 1016 0 0 SO 0 70.4 820
23:40:46 0 1016 0 0 SO 0 70.2 824
23:43:47 0 1016 0 0 N 0 70.6 820
23:46:44 0 1016 0 0 N 0 71.7 825
23:49:46 0 1016 0 0 N 0 70.9 817
23:52:46 0 1016 0 0 N 0 70.3 815
23:55:46 0 1016 0 0 N 0 70.6 811
23:58:47 0 1016 0 1 SO 0 71 812

Letzte Änderung : 22-Jul-2022
Copyright Jens Köhler, Wolfsburg, Obere Dorfstraße 10d